Weather in Bolshiye Leushi

Russia / Khanty-Mansi Autonomous Okrug — Yugra     62°11′03″N   67°11′05″E
temp.,
°C
wind,
m/s
gust,
m/s
humid.,
%
clouds,
%
prec.,
mm/h
press.,
hPa
HPBL,
m
24 january, mon
mon2423:00−14sw11100100 0.1 103329
02:00−17s1110090 0.0 10329
05:00−20ssw1110098 0.0 103219
08:00−21ssw11100100 0.0 103121
11:00−17ssw239947 0.0 103178
14:00−13s2593100 0.0 1029142
17:00−12s2596100 0.3 1028180
20:00−11s1497100 0.3 102697
25 january, tue
tue2523:00−12s129984 0.4 102437
02:00−17s11100100 0.1 10239
05:00−18s1110097 0.1 102217
08:00−22s11100100 0.0 102122
11:00−19s2410097 0.0 102183
14:00−16s279887 0.0 1020159
17:00−18sse289895 0.0 1020133
20:00−16s399998 0.0 1020190
26 january, wed
wed2623:00−15s31097100 0.1 1019232
02:00−11s31095100 0.7 1019284
05:00−11s31096100 0.9 1018268
08:00−12s3998100 0.0 1019222
11:00−14ssw379753 0.1 1019153
14:00−13ssw279019 0.0 1020163
17:00−15s2897100 0.0 1021119
20:00−16s2697100 0.0 102195
27 january, thu
thu2723:00−17s2798100 0.0 1021111
02:00−19s269996 0.0 102194
05:00−18s2899100 0.0 1021132
08:00−15s31097100 0.0 1020197
11:00−13s31096100 0.0 1019258
14:00−11s3991100 0.0 1018306
17:00−11s3995100 0.4 1018323
20:00−11ssw3995100 0.7 1018375
28 january, fri
fri2823:00−12ssw3896100 0.9 1018248
02:00−13ssw269894 0.1 1019148
05:00−16ssw259997 0.2 102092
08:00−20s22100100 0.0 102127
11:00−17ssw24100100 0.1 102183
14:00−14ssw239597 0.0 1021124
17:00−19s2310078 0.0 102237
20:00−17s139995 0.0 102256